www.pogodaiklimat.ru

Погода и климат >> Архив погоды >> Австралия >> Квинсленд >> Фосфат-Хилл


ПОГОДА в Фосфат-Хилл

  • Прогноз погоды в Фосфат-Хилл
  • Монитор погоды в Фосфат-Хилл

АРХИВ ПОГОДЫ в Фосфат-Хилл

Время (UTC), дата Ветер
(напр.,м/с)
 
Видим.   Явления Облачность Т
(С)
Тd
(С)
f
(%)
Тe
(С)
Тes
(С)
Комфортность P
(гПа)
Po
(гПа)
Тmin
(С)
Tmax
(С)
R
(мм)
R24
(мм)
S
(см)
17 17.08 СВ 2 н/о 5/0
[]
+17.5 +2.3 36 +18 +18 1015.6 981.9
20 17.08 С 4 н/о 3/0
[]
+18.5 +1.9 33 +19 +19 1015.4 981.7
23 17.08 С 3 н/о н/о +25.1 +4.3 26 +24 +24 комфорт 1017.7 984.0
02 18.08 СЗ 5 н/о 4/0
[]
+30.0 +7.2 24 +29 +36 жарко 1016.6 982.9 +16.6
05 18.08 З 5 н/о 10/0 2000 м
[]
+31.2 +9.4 26 +31 +33 жарко 1014.9 981.2
08 18.08 ЮЗ 7 н/о н/о +28.3 +3.2 20 +27 +27 жарко 1015.7 982.0
11 18.08 Ю 8 н/о н/о +21.4 +2.6 29 +21 +21 комфорт 1019.6 985.8
14 18.08 Ю 7 н/о н/о +17.5 -0.7 29 +17 +17 1021.4 987.5 +32.7
17 18.08 Ю 7 н/о н/о +13.8 -3.5 30 +12 +12 1022.4 988.5
20 18.08 Ю 5 н/о н/о +11.1 -4.9 32 +9 +9 1023.6 989.7
23 18.08 Ю 8 н/о н/о +13.1 -5.0 28 +11 +11 1026.0 992.0
02 19.08 Ю 9 н/о н/о +17.8 -4.2 22 +17 +17 1025.5 991.5 +10.1
05 19.08 Ю 8 н/о н/о +19.1 -4.4 20 +18 +18 1023.0 989.1
08 19.08 Ю 7 н/о н/о +16.9 -4.3 23 +16 +16 1023.6 989.7
11 19.08 Ю 5 н/о н/о +13.5 -4.6 28 +12 +12 1026.2 992.2
14 19.08 Ю 6 н/о н/о +10.9 -4.3 34 +8 +8 1026.8 992.8 +20.0
17 19.08 Ю 4 н/о н/о +8.1 -5.7 37 +6 +6 1026.4 992.4
20 19.08 Ю 6 н/о н/о +6.9 -6.1 39 +3 +3 1025.9 991.9
23 19.08 ЮВ 8 н/о н/о +10.6 -6.2 30 +8 +8 1028.1 994.0
02 20.08 ЮВ 7 н/о н/о +17.0 -4.8 22 +16 +16 1027.4 993.3 +6.5
05 20.08 Ю 7 н/о н/о +19.2 -6.4 17 +18 +18 1024.6 990.6
08 20.08 Ю 7 н/о н/о +18.0 -8.2 16 +17 +17 1024.7 990.7
11 20.08 Ю 5 н/о н/о +14.2 -9.1 19 +13 +13 1025.8 991.8
14 20.08 Ю 4 н/о н/о +9.8 -8.3 27 +8 +8 1025.6 991.6 +20.5
17 20.08 Ю 3 н/о н/о +6.9 -8.6 32 +5 +5 1024.5 990.5
20 20.08 Ю 4 н/о н/о +4.8 -9.3 35 +2 +2 1024.8 990.8
23 20.08 ЮВ 5 н/о н/о +11.8 -7.1 26 +10 +10 1026.6 992.6
02 21.08 ЮВ 7 н/о н/о +19.8 -5.9 17 +19 +19 1025.1 991.1 +3.9
05 21.08 ЮВ 7 н/о н/о +22.9 -8.0 12 +21 +21 комфорт 1022.4 988.5
08 21.08 ЮВ 7 н/о н/о +20.9 -8.5 13 +20 +20 1022.0 988.1
11 21.08 ЮВ 4 н/о н/о +13.2 -9.9 19 +12 +12 1023.2 989.3
14 21.08 Ю 3 н/о н/о +11.4 -8.4 24 +10 +10 1023.4 989.5 +23.8
17 21.08 Ю 3 н/о н/о +8.2 -7.9 31 +7 +7 1023.0 989.1
20 21.08 З 1 н/о н/о +4.7 -7.4 41 +4 +4 1023.4 989.5
23 21.08 ЮВ 4 н/о н/о +13.2 -3.1 32 +12 +12 1025.2 991.2
02 22.08 ЮВ 6 н/о н/о +20.7 -2.4 21 +20 +20 1023.4 989.5 +3.8
05 22.08 ЮВ 5 н/о н/о +23.9 -6.2 13 +22 +22 комфорт 1020.3 986.5
08 22.08 Ю 5 н/о н/о +22.7 -6.1 14 +21 +21 комфорт 1020.4 986.6
11 22.08 Ю 3 н/о н/о +14.6 -5.2 25 +14 +14 1021.7 987.8
14 22.08 Ю 2 н/о н/о +10.5 -6.8 29 +10 +10 1021.6 987.7 +25.4
17 22.08 Ю 2 н/о н/о +7.7 -4.4 42 +6 +6 1020.5 986.7
20 22.08 штиль 0 н/о н/о +5.0 -4.3 51 +5 +5 1021.2 987.3
23 22.08 ЮВ 3 н/о н/о +14.9 -0.8 34 +14 +14 1022.9 989.0
02 23.08 В 5 н/о н/о +22.4 +0.3 23 +22 +22 комфорт 1021.0 987.1 +3.5
05 23.08 В 4 н/о н/о +25.3 -1.5 17 +23 +23 комфорт 1017.7 984.0
08 23.08 ЮВ 2 н/о н/о +23.8 -2.7 17 +22 +22 комфорт 1018.0 984.2
11 23.08 ЮВ 3 н/о н/о +14.6 -2.3 31 +14 +14 1019.1 985.3
14 23.08 штиль 0 н/о н/о +10.8 -3.7 36 +11 +11 1018.4 984.6 +26.2
17 23.08 С 1 н/о н/о +7.3 -4.7 42 +8 +8 1018.3 984.5
20 23.08 З 2 н/о н/о +6.2 -4.3 47 +4 +4 1018.5 984.7
23 23.08 ЮЗ 1 н/о н/о +17.4 -1.8 27 +18 +18 1020.0 986.2
02 24.08 С 3 н/о н/о +26.0 -2.6 15 +24 +24 комфорт 1018.4 984.6 +5.9
05 24.08 З 4 н/о н/о +27.7 -4.3 12 +25 +25 комфорт 1015.8 982.1
08 24.08 ЮЗ 3 н/о н/о +26.6 -5.1 12 +24 +24 комфорт 1015.7 982.0
11 24.08 ЮЗ 3 н/о н/о +18.2 -4.5 21 +18 +18 1017.4 983.7
14 24.08 ЮЗ 2 н/о н/о +12.3 -5.7 28 +12 +12 1017.6 983.9 +29.1

 

Местоположение метеостанции Фосфат-Хилл (Квинсленд, Австралия): широта -21.80 долгота 139.92 высота над уровнем моря 289 м.

В архиве по умолчанию представлена погода в Фосфат-Хилл за последнюю неделю. Архивные данные за месяц целиком и за предыдущие месяцы, начиная с января 2011 года, Вы можете получить, выбрав интересующий диапазон дат из раскрывающегося списка и нажав кнопку "Ввод!".


*Определитесь, кто Вы:
робот инопланетянин человек

Внимание! Время в таблицах - всемирное. Для получения местного времени необходимо прибавить поправку, которая равна 10 ч.

Смотрите также архив погоды в соседних городах и на ближайших метеорологических станциях:

Погода в Аэропорту Трепелл (Квинсленд, Австралия) (99 км)
Погода на Маунт-Айза (Квинсленд, Австралия) (133 км)
Погода в Клонкарри (Квинсленд, Австралия) (139 км)
Погода в Нью Мэй Даун (Квинсленд, Австралия) (147 км)
Погода на Озере Джулиус (Квинсленд, Австралия) (188 км)
Погода в Джулия Крик (Квинсленд, Австралия) (226 км)
Погода в Камоауиле (Квинсленд, Австралия) (282 км)
Погода в Уинтоне (Квинсленд, Австралия) (332 км)
Погода в Ричмонд аэропорту (Квинсленд, Австралия) (353 км)
Погода на Руднике Century Mine (Квинсленд, Австралия) (362 км)

Пояснения к столбцам:

Ветер - указаны скорость ветра в м/с - средняя за 10 мин, порывы в срок и между сроками (в фигурных скобках) и направление, откуда дует ветер: С - северный, СВ - северо-восточный, В - восточный, ЮВ - юго-восточный, Ю - южный, ЮЗ - юго-западный, З - западный, СЗ - северо-западный.
Видимость - горизонтальная дальность видимости в метрах или километрах. При видимости от 1 до 10 км при отсутствии осадков обычно наблюдается дымка, при ухудшении видимости до 1 км и менее - туман. В сухую погоду видимость может ухудшаться дымом, пылью или мглою.
Явления - указаны атмосферные явления, наблюдавшиеся в срок или в последний час перед сроком; фигурными скобками обозначены явления, наблюдавшиеся между сроками (за 1-3 часа до срока); квадратными скобками обозначены град или гололедные отложения с указанием их диаметра в мм.
Облачность - указаны через наклонную черту общая и нижняя облачность в баллах и высота нижней границы облаков в метрах; квадратными скобками обозначены формы облаков: Ci - перистые, Cs - перисто-слоистые, Cc - перисто-кучевые, Ac - высококучевые, As - высокослоистые, Sc - слоисто-кучевые, Ns - слоисто-дождевые, Cu - кучевые, Cb - кучево-дождевые. Подробнее классификацию облаков см. в Атласе облаков (PDF).
T - Температура воздуха - температура, измеренная на высоте 2 м над землей.
Td - Температура точки росы - температура, при понижении до которой содержащийся в воздухе водяной пар достигнет насыщения.
f - Относительная влажность воздуха - влажноcть воздуха, измеренная на высоте 2 м над землей.
Te - Эффективная температура - температура, которую ощущает одетый по сезону человек в тени. Характеристика душности погоды. При расчете учитывается влияние влажности воздуха и скорости ветра на теплоощущения человека.
Tes - Эффективная температура на солнце - температура, которую ощущает человек, с поправкой на солнечный нагрев. Характеристика знойности погоды. Зависит от высоты солнца над горизонтом, облачности и скорости ветра. Ночью, в пасмурную погоду, а также при ветре 12 м/с и более поправка равна нулю.
P - Атмосферное давление - приведенное к уровню моря атмосферное давление.
Po - Атмосферное давление - измеренное на уровне метеостанции атмосферное давление.
Tmin - Минимальная температура - минимум температуры воздуха на высоте 2 м над землей.
Tmax - Максимальная температура - максимум температуры воздуха на высоте 2 м над землей.
R - Количество осадков - Количество выпавших осадков за период времени, мм. При наведении курсора мыши на число - период времени, за который выпало указанное количество осадков.
R24 - Количество осадков - Количество выпавших осадков за 24 часа, мм.
S - Снежный покров - Высота снежного покрова, см. При наведении курсора мыши на число - состояние снежного покрова и степень покрытия местности в баллах.